{"data":{"norad_id":64285,"intl_designator":"2025-121C","name":"HULIANWANG DIGUI-32","alt_names":[],"object_type":"PAYLOAD","status":"ACTIVE","operator":null,"country":"PRC","launch_date":"2025-06-05","launch_site_code":"TAISC","launch_vehicle":null,"mission":null,"orbit_class":"UNKNOWN","rcs_meters":null,"size_class":null,"mass_kg":null,"dimensions":null,"purposes":[],"wikipedia_slug":null,"has_3d_model":false,"image_url":null,"decayed_at":null,"tle_current":{"epoch":"2026-09-21T22:19:36.349248Z","epoch_age_seconds":64937,"freshness":"FRESH","line1":"1 64285U 25121C   26264.93028182  .00000050  00000+0  83293-4 0  9992","line2":"2 64285  86.5003 340.7431 0001675 103.8969 256.2351 13.24412705 62962","mean_motion":13.24412705,"eccentricity":0.0001675,"inclination_deg":86.5003,"raan_deg":340.7431,"arg_perigee_deg":103.8969,"mean_anomaly_deg":256.2351,"bstar":8.3293e-5,"rev_number":6296,"period_min":108.72743779666,"perigee_km":1166.6479476425,"apogee_km":1169.1758740276,"semimajor_km":7546.048910835,"source":"CELESTRAK","updated_at":"2026-09-22T09:00:29.675767Z"}}}